Orbital Elements at Epoch 2459200.5 (2020-Dec-17.0) TDB
Reference: JPL 6 (heliocentric ecliptic J2000)
Element | Value | Uncertainty (1-sigma) | Units |
e | .2761104537493732 | 0.00018503 | |
a | .809706348055467 | 9.3549e-05 | au |
q | .586137960890124 | 0.00021754 | au |
i | 4.26419724776603 | 0.0035674 | deg |
node | 347.4349003403624 | 0.0077432 | deg |
peri | 356.7980026727644 | 0.0045403 | deg |
M | 111.404467069841 | 0.23846 | deg |
tp | 2459118.145023475463 (2020-Sep-25.64502348) | 0.162 | TDB |
period | 266.1274931663809 0.73 | 0.046121 0.0001263 | d yr |
n | 1.352735095937385 | 0.00023443 | deg/d |
Q | 1.03327473522081 | 0.00011938 | au |
|
| | Orbit Determination Parameters
Additional Information
|